Terug naar catalogus

COSMOS 2491 DEB

LostPO
NORAD 44990·DEBRIS·🇷🇺 Russia

Gelanceerd Dec 25, 2013 vanaf Plesetsk Cosmodrome

Loading…

Volgende Passages (komende 24 uur)

TLE

VerouderdSource: Space-Track

Epoch: Jan 31, 2020, 17:08 UTC

1 44990U 13076L   20031.71458303 -.00000453  00000-0 -29325-2 0  9997
2 44990  82.4824 180.2314 0047920  31.4772 328.9165 12.52589096  3207

Volg COSMOS 2491 DEB in realtime met AllMySat

Download on the App Store